星链-11671 (STARLINK-11671)

导读

STARLINK-11671是美国太空探索技术公司SpaceX星链星座的一颗卫星,于2025年6月10日成功发射,归属星链互联网星座组网行列。星链项目旨在通过近地轨道卫星群搭建全球卫星互联网,为全球不同地区提供高速互联网接入服务,该卫星进一步扩充了星链星座的在轨规模与服务覆盖能力。

Basic Information
目录编号:
64319
目录名称:
STARLINK-11671
国际标识:
2025-124C
轨道中心:
EARTH
卫星名称:
星链-11671
卫星全名:
星链-11671 (STARLINK-11671)
卫星状态:
在轨 (已飞行452 天)
发射日期:
2025-06-10 UTC
国别 :
美国 (US)
星等 :
--
Orbit Information
数据来源 国际轨道数据
星历时间: 2026-09-05T10:32:14+0800
10小时前
查看轨道信息
半长轴: 6734.452km
偏心率: 0.000166
轨道倾角: 43.001°
近地点辐角 283.665°
升交点赤经 27.599°
平近点角 76.403°
近地点: 355.197km
远地点: 357.433km
周期: 91.667分钟
每日圈数: 15.709032
Detailed Information
固有亮度:
5
最大亮度:
2.5
卫星平台:
Starlink V1.0
覆盖范围:
全球
运营商:
太空探索技术公司
运营商所在国:
美国
制造商(研发单位):
太空探索技术公司
制造商所在国:
美国
使用方式:
暂无
Satellite Introduction
Starlink 计划是 SpaceX 推出的全球卫星互联网项目,通过发射低轨道卫星,为全球尤其是偏远地区提供高速、低延迟的互联网服务。自 2019 年起,Starlink 已部署数千颗卫星,旨在缩小全球数字鸿沟,推动互联网普及。该项目还为军事、航空等行业提供通信支持,带来广泛经济效益。
2D Orbit Map
3D Orbit Map
Orbit Altitude Analysis Chart
Orbit Inclination Analysis Chart
Orbit Comprehensive Analysis Chart
View Comprehensive Chart
Conjunction Data List
Event ID Objects TCA Miss Dist (km) Collision Risk Probability Collision Risk Index (CRI) Action
CDM_260907-013306-407406-431921
2026-09-07T
01:33:38+0000
2.905 km
极远距离
8.367005E-7 极低风险 0.33